,,Stat6,,Stat2,,Stat8,,Stat9,,Stat10,,Wind1,,Wind1,
time,status,PA1M_AVG,status,PR1M_SUM,status,RH1M_AVG,status,SR1M_AVG,status,TA1M_AVG,status,W1dAve1m,status,W1sAve1m,
2008-10-07, 00:00:00,VALID,918.554,VALID,0.2,VALID,100,VALID,0,VALID,19.6409,VALID,25,VALID,0,
2008-10-07, 00:01:00,VALID,918.54,VALID,0,VALID,100,VALID,0,VALID,19.6441,VALID,21,VALID,0,
2008-10-07, 00:02:00,VALID,918.531,VALID,0.2,VALID,100,VALID,0.0509425,VALID,19.6372,VALID,5,VALID,0,
2008-10-07, 00:03:00,VALID,918.509,VALID,0.2,VALID,100,VALID,0,VALID,19.6149,VALID,357,VALID,0.0148628,
2008-10-07, 00:04:00,VALID,918.475,VALID,0.2,VALID,100,VALID,-0.0339617,VALID,19.6057,VALID,353,VALID,0.27089,
2008-10-07, 00:05:00,VALID,918.463,VALID,0.2,VALID,100,VALID,-0.0849042,VALID,19.5902,VALID,8,VALID,0.887463,
2008-10-07, 00:06:00,VALID,918.446,VALID,0,VALID,100,VALID,-0.0679233,VALID,19.5605,VALID,5,VALID,1.21584,
2008-10-07, 00:07:00,VALID,918.439,VALID,0.2,VALID,100,VALID,-0.0849042,VALID,19.5451,VALID,5,VALID,1.17801,
2008-10-07, 00:08:00,VALID,918.409,VALID,0,VALID,100,VALID,-0.101885,VALID,19.5321,VALID,342,VALID,1.36083,
2008-10-07, 00:09:00,VALID,918.396,VALID,0.2,VALID,100,VALID,-0.101885,VALID,19.5158,VALID,10,VALID,1.09484,
2008-10-07, 00:10:00,VALID,918.358,VALID,0,VALID,100,VALID,-0.101885,VALID,19.5326,VALID,8,VALID,1.0745,
2008-10-07, 00:11:00,VALID,918.311,VALID,0,VALID,100,VALID,-0.118866,VALID,19.5226,VALID,15,VALID,1.00382,
2008-10-07, 00:12:00,VALID,918.294,VALID,0.2,VALID,100,VALID,-0.101885,VALID,19.5193,VALID,3,VALID,1.5307,
2008-10-07, 00:13:00,VALID,918.262,VALID,0,VALID,100,VALID,-0.101885,VALID,19.5059,VALID,7,VALID,1.17418,
2008-10-07, 00:14:00,VALID,918.248,VALID,0,VALID,100,VALID,-0.135847,VALID,19.5129,VALID,19,VALID,1.71246,
2008-10-07, 00:15:00,VALID,918.21,VALID,0,VALID,100,VALID,-0.118866,VALID,19.4837,VALID,18,VALID,1.77646,
2008-10-07, 00:16:00,VALID,918.224,VALID,0,VALID,100,VALID,-0.101885,VALID,19.5161,VALID,9,VALID,1.23281,
2008-10-07, 00:17:00,VALID,918.241,VALID,0,VALID,100,VALID,-0.101885,VALID,19.5094,VALID,9,VALID,1.56492,
2008-10-07, 00:18:00,VALID,918.247,VALID,0.2,VALID,100,VALID,-0.152827,VALID,19.4869,VALID,17,VALID,1.69131,
2008-10-07, 00:19:00,VALID,918.271,VALID,0,VALID,100,VALID,-0.0679233,VALID,19.4794,VALID,9,VALID,0.967311,
2008-10-07, 00:20:00,VALID,918.268,VALID,0,VALID,100,VALID,-0.0169808,VALID,19.4854,VALID,12,VALID,0.615829,
2008-10-07, 00:21:00,VALID,918.274,VALID,0,VALID,100,VALID,0,VALID,19.4884,VALID,18,VALID,0.0786966,
2008-10-07, 00:22:00,VALID,918.26,VALID,0,VALID,100,VALID,-0.0339617,VALID,19.4852,VALID,13,VALID,1.18448,
2008-10-07, 00:23:00,VALID,918.27,VALID,0.2,VALID,100,VALID,-0.0169808,VALID,19.443,VALID,18,VALID,1.78385,
2008-10-07, 00:24:00,VALID,918.275,VALID,0,VALID,100,VALID,0,VALID,19.44,VALID,11,VALID,1.6488,
2008-10-07, 00:25:00,VALID,918.285,VALID,0.2,VALID,100,VALID,-0.0339617,VALID,19.443,VALID,23,VALID,1.51036,
2008-10-07, 00:26:00,VALID,918.303,VALID,0,VALID,100,VALID,-0.0169808,VALID,19.4495,VALID,12,VALID,1.00533,
2008-10-07, 00:27:00,VALID,918.295,VALID,0.2,VALID,100,VALID,0,VALID,19.4525,VALID,15,VALID,1.69707,
2008-10-07, 00:28:00,VALID,918.3,VALID,0,VALID,100,VALID,0,VALID,19.4527,VALID,12,VALID,1.72366,
2008-10-07, 00:29:00,VALID,918.3,VALID,0.2,VALID,100,VALID,0,VALID,19.4427,VALID,2,VALID,1.11083,
2008-10-07, 00:30:00,VALID,918.28,VALID,0,VALID,100,VALID,0.0169808,VALID,19.4358,VALID,1,VALID,1.43129,
2008-10-07, 00:31:00,VALID,918.269,VALID,0.2,VALID,100,VALID,0,VALID,19.43,VALID,3,VALID,1.45985,
2008-10-07, 00:32:00,VALID,918.251,VALID,0,VALID,100,VALID,0,VALID,19.4365,VALID,18,VALID,1.69016,
2008-10-07, 00:33:00,VALID,918.251,VALID,0,VALID,100,VALID,0,VALID,19.4557,VALID,20,VALID,1.32884,
2008-10-07, 00:34:00,VALID,918.221,VALID,0.2,VALID,100,VALID,0,VALID,19.4525,VALID,8,VALID,1.22972,
2008-10-07, 00:35:00,VALID,918.215,VALID,0,VALID,100,VALID,-0.0169808,VALID,19.4495,VALID,9,VALID,1.34783,
2008-10-07, 00:36:00,VALID,918.215,VALID,0.2,VALID,100,VALID,-0.0509425,VALID,19.4462,VALID,342,VALID,1.37891,
2008-10-07, 00:37:00,VALID,918.197,VALID,0,VALID,100,VALID,-0.0509425,VALID,19.463,VALID,24,VALID,1.49461,
2008-10-07, 00:38:00,VALID,918.184,VALID,0.2,VALID,100,VALID,-0.0339617,VALID,19.4657,VALID,6,VALID,1.38536,
2008-10-07, 00:39:00,VALID,918.183,VALID,0.2,VALID,100,VALID,-0.0339617,VALID,19.4495,VALID,356,VALID,1.33285,
2008-10-07, 00:40:00,VALID,918.178,VALID,0,VALID,100,VALID,0,VALID,19.453,VALID,358,VALID,0.926448,
2008-10-07, 00:41:00,VALID,918.168,VALID,0.2,VALID,100,VALID,-0.0849042,VALID,19.4495,VALID,354,VALID,0.936523,
2008-10-07, 00:42:00,VALID,918.149,VALID,0,VALID,100,VALID,-0.0339617,VALID,19.4492,VALID,330,VALID,0.710938,
2008-10-07, 00:43:00,VALID,918.142,VALID,0.2,VALID,100,VALID,-0.0169808,VALID,19.4397,VALID,5,VALID,0.875,
2008-10-07, 00:44:00,VALID,918.13,VALID,0.2,VALID,100,VALID,-0.0169808,VALID,19.4565,VALID,355,VALID,1.35138,
2008-10-07, 00:45:00,VALID,918.098,VALID,0,VALID,100,VALID,-0.0509425,VALID,19.43,VALID,27,VALID,1.41425,
2008-10-07, 00:46:00,VALID,918.086,VALID,0.2,VALID,100,VALID,-0.0849042,VALID,19.4368,VALID,330,VALID,0.180556,
2008-10-07, 00:47:00,VALID,918.065,VALID,0,VALID,100,VALID,-0.0509425,VALID,19.4365,VALID,3,VALID,0,
2008-10-07, 00:48:00,VALID,918.039,VALID,0,VALID,100,VALID,-0.0509425,VALID,19.453,VALID,14,VALID,0,
2008-10-07, 00:49:00,VALID,918.015,VALID,0.2,VALID,100,VALID,-0.0169808,VALID,19.4557,VALID,15,VALID,0,
2008-10-07, 00:50:00,VALID,917.99,VALID,0,VALID,100,VALID,-0.0509425,VALID,19.4817,VALID,28,VALID,0.362891,
2008-10-07, 00:51:00,VALID,917.972,VALID,0,VALID,100,VALID,-0.0849042,VALID,19.5211,VALID,14,VALID,0.358487,
2008-10-07, 00:52:00,VALID,917.959,VALID,0.2,VALID,100,VALID,-0.0339617,VALID,19.5146,VALID,17,VALID,1.11683,
2008-10-07, 00:53:00,VALID,917.92,VALID,0,VALID,100,VALID,-0.0509425,VALID,19.5241,VALID,28,VALID,1.03274,
2008-10-07, 00:54:00,VALID,917.899,VALID,0.2,VALID,100,VALID,-0.0509425,VALID,19.4981,VALID,24,VALID,1.32552,
2008-10-07, 00:55:00,VALID,917.87,VALID,0,VALID,100,VALID,-0.0339617,VALID,19.4884,VALID,27,VALID,1.80434,
2008-10-07, 00:56:00,VALID,917.864,VALID,0,VALID,100,VALID,-0.0509425,VALID,19.4814,VALID,21,VALID,1.76414,
2008-10-07, 00:57:00,VALID,917.847,VALID,0.2,VALID,100,VALID,-0.0679233,VALID,19.4857,VALID,15,VALID,1.41082,
2008-10-07, 00:58:00,VALID,917.828,VALID,0,VALID,100,VALID,-0.0679233,VALID,19.4754,VALID,354,VALID,1.12165,
2008-10-07, 00:59:00,VALID,917.822,VALID,0,VALID,100,VALID,-0.0339617,VALID,19.4689,VALID,12,VALID,1.33538,
2008-10-07, 01:00:00,VALID,917.81,VALID,0,VALID,100,VALID,-0.0339617,VALID,19.4592,VALID,11,VALID,1.57167,
2008-10-07, 01:01:00,VALID,917.794,VALID,0,VALID,100,VALID,-0.0339617,VALID,19.43,VALID,18,VALID,1.99554,
2008-10-07, 01:02:00,VALID,917.815,VALID,0.2,VALID,100,VALID,-0.0339617,VALID,19.43,VALID,22,VALID,0.683117,
2008-10-07, 01:03:00,VALID,917.824,VALID,0,VALID,100,VALID,-0.0169808,VALID,19.4527,VALID,360,VALID,0.239211,
2008-10-07, 01:04:00,VALID,917.798,VALID,0,VALID,100,VALID,-0.0169808,VALID,19.4495,VALID,19,VALID,0.958789,
2008-10-07, 01:05:00,VALID,917.796,VALID,0,VALID,100,VALID,-0.0339617,VALID,19.4298,VALID,4,VALID,1.26582,
2008-10-07, 01:06:00,VALID,917.814,VALID,0,VALID,100,VALID,-0.0169808,VALID,19.4235,VALID,29,VALID,1.00272,
2008-10-07, 01:07:00,VALID,917.809,VALID,0.2,VALID,100,VALID,-0.0169808,VALID,19.4427,VALID,19,VALID,1.26744,
2008-10-07, 01:08:00,VALID,917.789,VALID,0,VALID,100,VALID,-0.0679233,VALID,19.4397,VALID,10,VALID,1.37409,
2008-10-07, 01:09:00,VALID,917.794,VALID,0,VALID,100,VALID,-0.0169808,VALID,19.4168,VALID,5,VALID,1.14996,
2008-10-07, 01:10:00,VALID,917.783,VALID,0,VALID,100,VALID,-0.0169808,VALID,19.4073,VALID,27,VALID,1.15934,
2008-10-07, 01:11:00,VALID,917.788,VALID,0,VALID,100,VALID,-0.0169808,VALID,19.4101,VALID,29,VALID,0.877362,
2008-10-07, 01:12:00,VALID,917.793,VALID,0,VALID,100,VALID,0,VALID,19.4198,VALID,30,VALID,1.88388,
2008-10-07, 01:13:00,VALID,917.794,VALID,0.2,VALID,100,VALID,0,VALID,19.4138,VALID,18,VALID,1.72656,
2008-10-07, 01:14:00,VALID,917.803,VALID,0,VALID,100,VALID,-0.0339617,VALID,19.3811,VALID,9,VALID,1.68242,
2008-10-07, 01:15:00,VALID,917.807,VALID,0,VALID,100,VALID,-0.0169808,VALID,19.3616,VALID,13,VALID,1.16406,
2008-10-07, 01:16:00,VALID,917.813,VALID,0,VALID,100,VALID,-0.0339617,VALID,19.3779,VALID,31,VALID,1.34659,
2008-10-07, 01:17:00,VALID,917.797,VALID,0,VALID,100,VALID,-0.0169808,VALID,19.3811,VALID,26,VALID,1.56743,
2008-10-07, 01:18:00,VALID,917.782,VALID,0,VALID,100,VALID,0,VALID,19.42,VALID,28,VALID,1.0021,
2008-10-07, 01:19:00,VALID,917.763,VALID,0,VALID,100,VALID,-0.0169808,VALID,19.4203,VALID,21,VALID,1.33956,
2008-10-07, 01:20:00,VALID,917.742,VALID,0.2,VALID,100,VALID,-0.0509425,VALID,19.4073,VALID,356,VALID,1.1598,
2008-10-07, 01:21:00,VALID,917.703,VALID,0,VALID,100,VALID,0,VALID,19.3876,VALID,24,VALID,1.2218,
2008-10-07, 01:22:00,VALID,917.698,VALID,0,VALID,100,VALID,-0.0339617,VALID,19.4073,VALID,30,VALID,1.56417,
2008-10-07, 01:23:00,VALID,917.699,VALID,0,VALID,100,VALID,-0.0169808,VALID,19.423,VALID,16,VALID,0.99907,
2008-10-07, 01:24:00,VALID,917.687,VALID,0,VALID,100,VALID,-0.0339617,VALID,19.4365,VALID,22,VALID,0.489099,
2008-10-07, 01:25:00,VALID,917.683,VALID,0,VALID,100,VALID,-0.0509425,VALID,19.453,VALID,22,VALID,0.114347,
2008-10-07, 01:26:00,VALID,917.688,VALID,0,VALID,100,VALID,-0.0679233,VALID,19.3976,VALID,2,VALID,0.787972,
2008-10-07, 01:27:00,VALID,917.704,VALID,0,VALID,100,VALID,-0.101885,VALID,19.3586,VALID,21,VALID,0.0510671,
2008-10-07, 01:28:00,VALID,917.721,VALID,0,VALID,100,VALID,-0.0509425,VALID,19.3721,VALID,22,VALID,0.539789,
2008-10-07, 01:29:00,VALID,917.731,VALID,0,VALID,100,VALID,-0.0339617,VALID,19.4008,VALID,27,VALID,0.896129,
2008-10-07, 01:30:00,VALID,917.713,VALID,0.2,VALID,100,VALID,-0.0679233,VALID,19.3746,VALID,3,VALID,1.34824,
2008-10-07, 01:31:00,VALID,917.723,VALID,0,VALID,100,VALID,-0.0169808,VALID,19.3651,VALID,20,VALID,0.0513393,
2008-10-07, 01:32:00,VALID,917.69,VALID,0,VALID,100,VALID,-0.0169808,VALID,19.3552,VALID,27,VALID,1.6915,
2008-10-07, 01:33:00,VALID,917.689,VALID,0,VALID,100,VALID,-0.0169808,VALID,19.3294,VALID,19,VALID,2.18984,
2008-10-07, 01:34:00,VALID,917.67,VALID,0,VALID,100,VALID,-0.0339617,VALID,19.3197,VALID,18,VALID,0.991493,
2008-10-07, 01:35:00,VALID,917.667,VALID,0,VALID,100,VALID,0,VALID,19.2935,VALID,24,VALID,0.725818,
2008-10-07, 01:36:00,VALID,917.657,VALID,0,VALID,100,VALID,-0.0509425,VALID,19.3067,VALID,21,VALID,0.853659,
2008-10-07, 01:37:00,VALID,917.637,VALID,0.2,VALID,100,VALID,-0.0509425,VALID,19.2873,VALID,22,VALID,1.37024,
2008-10-07, 01:38:00,VALID,917.654,VALID,0,VALID,100,VALID,-0.0509425,VALID,19.3067,VALID,28,VALID,0.475109,
2008-10-07, 01:39:00,VALID,917.655,VALID,0,VALID,100,VALID,-0.0169808,VALID,19.3389,VALID,26,VALID,0.472834,
2008-10-07, 01:40:00,VALID,917.639,VALID,0,VALID,100,VALID,-0.0509425,VALID,19.3324,VALID,15,VALID,1.88548,
2008-10-07, 01:41:00,VALID,917.66,VALID,0,VALID,100,VALID,-0.0339617,VALID,19.294,VALID,353,VALID,1.50479,
2008-10-07, 01:42:00,VALID,917.656,VALID,0,VALID,100,VALID,-0.0849042,VALID,19.271,VALID,21,VALID,0.965402,
2008-10-07, 01:43:00,VALID,917.674,VALID,0,VALID,100,VALID,-0.0169808,VALID,19.274,VALID,23,VALID,0.468932,
2008-10-07, 01:44:00,VALID,917.677,VALID,0,VALID,100,VALID,0,VALID,19.2935,VALID,23,VALID,0.370046,
2008-10-07, 01:45:00,VALID,917.694,VALID,0.2,VALID,100,VALID,-0.0679233,VALID,19.31,VALID,26,VALID,0.656076,
2008-10-07, 01:46:00,VALID,917.704,VALID,0,VALID,100,VALID,0,VALID,19.3165,VALID,22,VALID,0.793636,
2008-10-07, 01:47:00,VALID,917.706,VALID,0,VALID,100,VALID,0,VALID,19.3257,VALID,18,VALID,0.894231,
2008-10-07, 01:48:00,VALID,917.717,VALID,0,VALID,100,VALID,-0.0509425,VALID,19.3065,VALID,10,VALID,0.890092,
2008-10-07, 01:49:00,VALID,917.708,VALID,0,VALID,100,VALID,-0.0339617,VALID,19.3132,VALID,23,VALID,1.11496,
2008-10-07, 01:50:00,VALID,917.693,VALID,0,VALID,100,VALID,-0.0169808,VALID,19.284,VALID,340,VALID,1.28906,
2008-10-07, 01:51:00,VALID,917.692,VALID,0,VALID,100,VALID,-0.0169808,VALID,19.2511,VALID,359,VALID,0.469866,
2008-10-07, 01:52:00,VALID,917.646,VALID,0.2,VALID,100,VALID,-0.0339617,VALID,19.2481,VALID,20,VALID,1.20331,
2008-10-07, 01:53:00,VALID,917.632,VALID,0,VALID,100,VALID,-0.0339617,VALID,19.2578,VALID,9,VALID,2.04634,
2008-10-07, 01:54:00,VALID,917.633,VALID,0,VALID,100,VALID,-0.0679233,VALID,19.2676,VALID,17,VALID,0.518973,
2008-10-07, 01:55:00,VALID,917.621,VALID,0,VALID,100,VALID,-0.0509425,VALID,19.284,VALID,26,VALID,0.418679,
2008-10-07, 01:56:00,VALID,917.616,VALID,0,VALID,100,VALID,-0.0339617,VALID,19.2676,VALID,18,VALID,0.990278,
2008-10-07, 01:57:00,VALID,917.613,VALID,0.2,VALID,100,VALID,-0.0849042,VALID,19.2676,VALID,359,VALID,1.32449,
2008-10-07, 01:58:00,VALID,917.604,VALID,0,VALID,100,VALID,-0.0169808,VALID,19.2481,VALID,355,VALID,1.75104,
2008-10-07, 01:59:00,VALID,917.608,VALID,0,VALID,100,VALID,-0.0169808,VALID,19.2543,VALID,26,VALID,1.3065,
2008-10-07, 02:00:00,VALID,917.598,VALID,0.2,VALID,100,VALID,-0.0679233,VALID,19.3005,VALID,26,VALID,0.765439,
2008-10-07, 02:01:00,VALID,917.592,VALID,0,VALID,100,VALID,-0.0169808,VALID,19.3132,VALID,23,VALID,1.13826,
2008-10-07, 02:02:00,VALID,917.574,VALID,0.2,VALID,100,VALID,-0.0849042,VALID,19.32,VALID,28,VALID,1.13772,
2008-10-07, 02:03:00,VALID,917.562,VALID,0,VALID,100,VALID,-0.0169808,VALID,19.3329,VALID,15,VALID,1.33108,
2008-10-07, 02:04:00,VALID,917.545,VALID,0.2,VALID,100,VALID,-0.0509425,VALID,19.3424,VALID,17,VALID,1.57951,
2008-10-07, 02:05:00,VALID,917.502,VALID,0,VALID,100,VALID,-0.0339617,VALID,19.3035,VALID,25,VALID,1.73619,
2008-10-07, 02:06:00,VALID,917.501,VALID,0.2,VALID,100,VALID,-0.0509425,VALID,19.2998,VALID,12,VALID,1.07191,
2008-10-07, 02:07:00,VALID,917.464,VALID,0,VALID,100,VALID,-0.0679233,VALID,19.2903,VALID,353,VALID,1.2763,
2008-10-07, 02:08:00,VALID,917.44,VALID,0.2,VALID,100,VALID,-0.0169808,VALID,19.2873,VALID,16,VALID,1.05342,
2008-10-07, 02:09:00,VALID,917.411,VALID,0,VALID,100,VALID,-0.0509425,VALID,19.2968,VALID,26,VALID,1.26265,
2008-10-07, 02:10:00,VALID,917.388,VALID,0.2,VALID,100,VALID,-0.0339617,VALID,19.2905,VALID,25,VALID,1.52255,
2008-10-07, 02:11:00,VALID,917.36,VALID,0,VALID,100,VALID,-0.0169808,VALID,19.3165,VALID,25,VALID,1.17533,
2008-10-07, 02:12:00,VALID,917.33,VALID,0.2,VALID,100,VALID,-0.0169808,VALID,19.326,VALID,34,VALID,0.754179,
2008-10-07, 02:13:00,VALID,917.305,VALID,0,VALID,100,VALID,-0.0169808,VALID,19.316,VALID,22,VALID,1.2298,
2008-10-07, 02:14:00,VALID,917.273,VALID,0,VALID,100,VALID,-0.0169808,VALID,19.3327,VALID,27,VALID,1.26944,
2008-10-07, 02:15:00,VALID,917.241,VALID,0.2,VALID,100,VALID,-0.0339617,VALID,19.3392,VALID,23,VALID,0.712798,
2008-10-07, 02:16:00,VALID,917.235,VALID,0,VALID,100,VALID,-0.0169808,VALID,19.316,VALID,31,VALID,1.41788,
2008-10-07, 02:17:00,VALID,917.205,VALID,0.2,VALID,100,VALID,-0.0339617,VALID,19.3324,VALID,22,VALID,1.26191,
2008-10-07, 02:18:00,VALID,917.192,VALID,0,VALID,100,VALID,-0.0339617,VALID,19.3454,VALID,25,VALID,1.19123,
2008-10-07, 02:19:00,VALID,917.171,VALID,0.2,VALID,100,VALID,-0.0509425,VALID,19.323,VALID,349,VALID,1.21366,
2008-10-07, 02:20:00,VALID,917.141,VALID,0.2,VALID,100,VALID,-0.0169808,VALID,19.2873,VALID,21,VALID,1.28524,
2008-10-07, 02:21:00,VALID,917.117,VALID,0,VALID,100,VALID,-0.0339617,VALID,19.2676,VALID,19,VALID,1.86615,
2008-10-07, 02:22:00,VALID,917.129,VALID,0.2,VALID,100,VALID,-0.0169808,VALID,19.2933,VALID,25,VALID,0.734189,
2008-10-07, 02:23:00,VALID,917.128,VALID,0,VALID,100,VALID,-0.0339617,VALID,19.313,VALID,34,VALID,0.998633,
2008-10-07, 02:24:00,VALID,917.149,VALID,0.2,VALID,100,VALID,0,VALID,19.3157,VALID,24,VALID,1.38699,
2008-10-07, 02:25:00,VALID,917.159,VALID,0,VALID,100,VALID,0,VALID,19.3025,VALID,29,VALID,1.35032,
2008-10-07, 02:26:00,VALID,917.152,VALID,0,VALID,100,VALID,0,VALID,19.2925,VALID,23,VALID,1.2434,
2008-10-07, 02:27:00,VALID,917.16,VALID,0.2,VALID,100,VALID,-0.0339617,VALID,19.2671,VALID,21,VALID,1.90916,
2008-10-07, 02:28:00,VALID,917.157,VALID,0,VALID,100,VALID,0,VALID,19.2738,VALID,31,VALID,1.24663,
2008-10-07, 02:29:00,VALID,917.161,VALID,0,VALID,100,VALID,-0.0169808,VALID,19.2771,VALID,20,VALID,1.6657,
2008-10-07, 02:30:00,VALID,917.165,VALID,0.2,VALID,100,VALID,-0.0169808,VALID,19.2706,VALID,23,VALID,1.4334,
2008-10-07, 02:31:00,VALID,917.129,VALID,0,VALID,100,VALID,0,VALID,19.2476,VALID,26,VALID,2.05506,
2008-10-07, 02:32:00,VALID,917.145,VALID,0,VALID,100,VALID,-0.0169808,VALID,19.2449,VALID,24,VALID,1.74107,
2008-10-07, 02:33:00,VALID,917.149,VALID,0,VALID,100,VALID,0,VALID,19.2611,VALID,31,VALID,0.699396,
2008-10-07, 02:34:00,VALID,917.152,VALID,0,VALID,100,VALID,-0.0169808,VALID,19.2736,VALID,28,VALID,1.11338,
2008-10-07, 02:35:00,VALID,917.159,VALID,0.2,VALID,100,VALID,0.0339617,VALID,19.277,VALID,16,VALID,1.04249,
2008-10-07, 02:36:00,VALID,917.177,VALID,0,VALID,100,VALID,0.0169808,VALID,19.2803,VALID,39,VALID,0.656436,
2008-10-07, 02:37:00,VALID,917.191,VALID,0,VALID,100,VALID,0,VALID,19.2835,VALID,24,VALID,0.834961,
2008-10-07, 02:38:00,VALID,917.207,VALID,0,VALID,100,VALID,0,VALID,19.2636,VALID,23,VALID,1.16518,
2008-10-07, 02:39:00,VALID,917.222,VALID,0,VALID,100,VALID,0.0169808,VALID,19.2698,VALID,11,VALID,0.8484,
2008-10-07, 02:40:00,VALID,917.227,VALID,0,VALID,100,VALID,0.0169808,VALID,19.2796,VALID,24,VALID,0.892361,
2008-10-07, 02:41:00,VALID,917.229,VALID,0.2,VALID,100,VALID,0.0169808,VALID,19.2963,VALID,31,VALID,1.23698,
2008-10-07, 02:42:00,VALID,917.23,VALID,0,VALID,100,VALID,0.0169808,VALID,19.283,VALID,26,VALID,0.978609,
2008-10-07, 02:43:00,VALID,917.219,VALID,0,VALID,100,VALID,-0.0339617,VALID,19.2671,VALID,26,VALID,1.41239,
2008-10-07, 02:44:00,VALID,917.216,VALID,0,VALID,100,VALID,0,VALID,19.274,VALID,23,VALID,1.08825,
2008-10-07, 02:45:00,VALID,917.181,VALID,0,VALID,100,VALID,0.0169808,VALID,19.2608,VALID,6,VALID,1.37282,
2008-10-07, 02:46:00,VALID,917.148,VALID,0,VALID,100,VALID,-0.0169808,VALID,19.2418,VALID,21,VALID,1.7004,
2008-10-07, 02:47:00,VALID,917.131,VALID,0,VALID,100,VALID,0,VALID,19.2189,VALID,21,VALID,1.49546,
2008-10-07, 02:48:00,VALID,917.111,VALID,0,VALID,100,VALID,0,VALID,19.2384,VALID,31,VALID,1.67369,
2008-10-07, 02:49:00,VALID,917.096,VALID,0.2,VALID,100,VALID,0,VALID,19.2608,VALID,23,VALID,1.23754,
2008-10-07, 02:50:00,VALID,917.075,VALID,0,VALID,100,VALID,-0.0169808,VALID,19.2509,VALID,19,VALID,0.470796,
2008-10-07, 02:51:00,VALID,917.063,VALID,0,VALID,100,VALID,-0.0169808,VALID,19.2546,VALID,26,VALID,1.20922,
2008-10-07, 02:52:00,VALID,917.054,VALID,0,VALID,100,VALID,-0.0169808,VALID,19.271,VALID,34,VALID,1.18663,
2008-10-07, 02:53:00,VALID,917.034,VALID,0,VALID,100,VALID,0,VALID,19.2736,VALID,25,VALID,1.79726,
2008-10-07, 02:54:00,VALID,917.041,VALID,0,VALID,100,VALID,-0.0169808,VALID,19.274,VALID,23,VALID,1.46708,
2008-10-07, 02:55:00,VALID,917.037,VALID,0,VALID,100,VALID,0,VALID,19.287,VALID,27,VALID,1.69417,
2008-10-07, 02:56:00,VALID,917.043,VALID,0,VALID,100,VALID,0,VALID,19.2708,VALID,20,VALID,1.56944,
2008-10-07, 02:57:00,VALID,917.045,VALID,0,VALID,100,VALID,0.0169808,VALID,19.2673,VALID,5,VALID,1.33612,
2008-10-07, 02:58:00,VALID,917.078,VALID,0,VALID,100,VALID,0,VALID,19.2643,VALID,30,VALID,1.55977,
2008-10-07, 02:59:00,VALID,917.08,VALID,0,VALID,100,VALID,0.0169808,VALID,19.2638,VALID,17,VALID,0.833008,
2008-10-07, 03:00:00,VALID,917.097,VALID,0,VALID,100,VALID,-0.0169808,VALID,19.2409,VALID,21,VALID,1.28316,
2008-10-07, 03:01:00,VALID,917.094,VALID,0,VALID,100,VALID,0.0169808,VALID,19.2251,VALID,23,VALID,0.773983,
2008-10-07, 03:02:00,VALID,917.084,VALID,0,VALID,100,VALID,0,VALID,19.2147,VALID,22,VALID,1.45664,
2008-10-07, 03:03:00,VALID,917.09,VALID,0,VALID,100,VALID,0,VALID,19.2279,VALID,1,VALID,1.09236,
2008-10-07, 03:04:00,VALID,917.075,VALID,0,VALID,100,VALID,-0.0339617,VALID,19.1892,VALID,17,VALID,1.92969,
2008-10-07, 03:05:00,VALID,917.105,VALID,0,VALID,100,VALID,-0.101885,VALID,19.1912,VALID,35,VALID,1.30586,
2008-10-07, 03:06:00,VALID,917.105,VALID,0,VALID,100,VALID,-0.118866,VALID,19.2002,VALID,24,VALID,1.52902,
2008-10-07, 03:07:00,VALID,917.123,VALID,0,VALID,100,VALID,-0.101885,VALID,19.2069,VALID,4,VALID,1.19382,
2008-10-07, 03:08:00,VALID,917.12,VALID,0,VALID,100,VALID,-0.0849042,VALID,19.1872,VALID,9,VALID,1.78292,
2008-10-07, 03:09:00,VALID,917.125,VALID,0,VALID,100,VALID,-0.0679233,VALID,19.1807,VALID,13,VALID,1.41406,
2008-10-07, 03:10:00,VALID,917.109,VALID,0,VALID,100,VALID,-0.0339617,VALID,19.174,VALID,10,VALID,1.60956,
2008-10-07, 03:11:00,VALID,917.093,VALID,0,VALID,100,VALID,-0.101885,VALID,19.1747,VALID,10,VALID,2.05575,
2008-10-07, 03:12:00,VALID,917.078,VALID,0,VALID,100,VALID,-0.101885,VALID,19.1483,VALID,7,VALID,1.9899,
2008-10-07, 03:13:00,VALID,917.064,VALID,0,VALID,100,VALID,-0.101885,VALID,19.1383,VALID,2,VALID,2.25654,
2008-10-07, 03:14:00,VALID,917.062,VALID,0,VALID,100,VALID,-0.118866,VALID,19.1318,VALID,28,VALID,0.738281,
2008-10-07, 03:15:00,VALID,917.043,VALID,0,VALID,100,VALID,-0.0849042,VALID,19.1418,VALID,28,VALID,0.728277,
2008-10-07, 03:16:00,VALID,917.029,VALID,0,VALID,100,VALID,-0.0679233,VALID,19.1547,VALID,35,VALID,1.02143,
2008-10-07, 03:17:00,VALID,917.042,VALID,0,VALID,100,VALID,-0.0849042,VALID,19.1705,VALID,3,VALID,0.865663,
2008-10-07, 03:18:00,VALID,917.05,VALID,0,VALID,100,VALID,-0.0849042,VALID,19.1807,VALID,24,VALID,1.32576,
2008-10-07, 03:19:00,VALID,917.048,VALID,0,VALID,100,VALID,-0.0509425,VALID,19.1904,VALID,29,VALID,1.18368,
2008-10-07, 03:20:00,VALID,917.053,VALID,0,VALID,100,VALID,0,VALID,19.1952,VALID,356,VALID,0.170785,
2008-10-07, 03:21:00,VALID,917.021,VALID,0,VALID,100,VALID,0.0169808,VALID,19.1925,VALID,38,VALID,0.914773,
2008-10-07, 03:22:00,VALID,917,VALID,0,VALID,100,VALID,0,VALID,19.1725,VALID,53,VALID,1.81934,
2008-10-07, 03:23:00,VALID,917.017,VALID,0,VALID,100,VALID,0,VALID,19.1668,VALID,30,VALID,1.62184,
2008-10-07, 03:24:00,VALID,917.019,VALID,0,VALID,100,VALID,0.0339617,VALID,19.1533,VALID,24,VALID,1.52477,
2008-10-07, 03:25:00,VALID,917.009,VALID,0,VALID,100,VALID,0.0169808,VALID,19.1563,VALID,42,VALID,1.17205,
2008-10-07, 03:26:00,VALID,916.994,VALID,0,VALID,100,VALID,0.0169808,VALID,19.1468,VALID,31,VALID,1.4194,
2008-10-07, 03:27:00,VALID,916.981,VALID,0.2,VALID,100,VALID,0.0169808,VALID,19.1633,VALID,31,VALID,1.15997,
2008-10-07, 03:28:00,VALID,916.971,VALID,0,VALID,100,VALID,0,VALID,19.1797,VALID,331,VALID,0.20918,
2008-10-07, 03:29:00,VALID,916.956,VALID,0,VALID,100,VALID,0.0169808,VALID,19.1792,VALID,294,VALID,0,
2008-10-07, 03:30:00,VALID,916.949,VALID,0,VALID,100,VALID,0,VALID,19.1725,VALID,6,VALID,0.342014,
2008-10-07, 03:31:00,VALID,916.955,VALID,0,VALID,100,VALID,0.0339617,VALID,19.1598,VALID,27,VALID,0.315476,
2008-10-07, 03:32:00,VALID,916.967,VALID,0,VALID,100,VALID,0.0339617,VALID,19.1598,VALID,31,VALID,0.843572,
2008-10-07, 03:33:00,VALID,916.964,VALID,0,VALID,100,VALID,0.0169808,VALID,19.186,VALID,35,VALID,1.01875,
2008-10-07, 03:34:00,VALID,916.966,VALID,0,VALID,100,VALID,0,VALID,19.1825,VALID,25,VALID,1.47402,
2008-10-07, 03:35:00,VALID,916.981,VALID,0,VALID,100,VALID,0,VALID,19.1565,VALID,24,VALID,1.48865,
2008-10-07, 03:36:00,VALID,916.985,VALID,0,VALID,100,VALID,0,VALID,19.15,VALID,33,VALID,1.06715,
2008-10-07, 03:37:00,VALID,916.975,VALID,0,VALID,100,VALID,-0.0169808,VALID,19.1236,VALID,25,VALID,1.21475,
2008-10-07, 03:38:00,VALID,916.973,VALID,0,VALID,100,VALID,0,VALID,19.1371,VALID,4,VALID,0.708519,
2008-10-07, 03:39:00,VALID,916.955,VALID,0,VALID,100,VALID,0,VALID,19.1236,VALID,28,VALID,0.358789,
2008-10-07, 03:40:00,VALID,916.939,VALID,0,VALID,100,VALID,0,VALID,19.1333,VALID,20,VALID,0.000181686,
2008-10-07, 03:41:00,VALID,916.924,VALID,0,VALID,100,VALID,-0.0169808,VALID,19.1406,VALID,50,VALID,0.0720274,